GHST12 ESMT-ESIB

Flight info

Callsign GHST12
Flight time N/A
Altitude 4000
Route DCT LG DCT
Aircraft SB39/M-SDE2E3FGHIJ3J4J5M1RWXYZ/S

Departure

Time 2026-04-19 20:44
Airport Halmstad Airport (ESMT)

Arrival

Time N/A
Airport Såtenäs Air Base (ESIB)
Time Latitude Longitude Altitude Speed Heading
2026-04-19 20:35 56.68711 12.82620 71 ft 0 kts 253°
2026-04-19 20:39 56.68708 12.82604 73 ft 7 kts 252°
2026-04-19 20:40 56.68657 12.82551 73 ft 11 kts 165°
2026-04-19 20:40 56.68574 12.82596 72 ft 14 kts 164°
2026-04-19 20:40 56.68496 12.82638 69 ft 13 kts 163°
2026-04-19 20:40 56.68404 12.82670 73 ft 13 kts 181°
2026-04-19 20:41 56.68303 12.82617 73 ft 20 kts 211°
2026-04-19 20:41 56.68209 12.82422 73 ft 20 kts 233°
2026-04-19 20:41 56.68136 12.82257 68 ft 15 kts 232°
2026-04-19 20:41 56.68073 12.82108 72 ft 14 kts 238°
2026-04-19 20:42 56.68055 12.82002 71 ft 0 kts 271°
2026-04-19 20:43 56.68055 12.81999 71 ft 5 kts 271°
2026-04-19 20:43 56.68085 12.81835 67 ft 15 kts 324°
2026-04-19 20:43 56.68127 12.81829 71 ft 9 kts
2026-04-19 20:43 56.69060 12.82014 151 ft 264 kts
2026-04-19 20:44 56.71545 12.82510 486 ft 404 kts
2026-04-19 20:44 56.74385 12.82971 862 ft 412 kts
2026-04-19 20:44 56.77266 12.83307 1295 ft 418 kts
2026-04-19 20:44 56.80086 12.83952 1376 ft 381 kts 12°
2026-04-19 20:45 56.82525 12.84481 1534 ft 327 kts
2026-04-19 20:45 56.84911 12.84845 1672 ft 373 kts
2026-04-19 20:45 56.87546 12.85203 1846 ft 376 kts
2026-04-19 20:45 56.90087 12.85722 2023 ft 359 kts 13°
2026-04-19 20:46 56.92618 12.86848 1952 ft 392 kts 19°
2026-04-19 20:46 56.95314 12.88338 1804 ft 409 kts 21°
2026-04-19 20:46 56.97986 12.90119 1826 ft 415 kts 24°
2026-04-19 20:46 57.00688 12.92028 1845 ft 418 kts 23°
2026-04-19 20:47 57.03410 12.93782 1885 ft 421 kts 21°
2026-04-19 20:47 57.06149 12.95457 1818 ft 405 kts 24°
2026-04-19 20:47 57.08722 12.97192 1815 ft 377 kts 22°
2026-04-19 20:47 57.11120 12.98743 1820 ft 356 kts 22°
2026-04-19 20:48 57.13438 13.00236 1820 ft 342 kts 23°
2026-04-19 20:48 57.15710 13.01707 1832 ft 342 kts 23°
2026-04-19 20:48 57.17984 13.03182 1831 ft 349 kts 23°
2026-04-19 20:48 57.20223 13.04625 1829 ft 340 kts 24°
2026-04-19 20:49 57.22494 13.06102 1828 ft 356 kts 22°
2026-04-19 20:49 57.24772 13.07591 1835 ft 342 kts 23°
2026-04-19 20:49 57.27040 13.09062 1823 ft 347 kts 23°
2026-04-19 20:49 57.29262 13.10497 1815 ft 360 kts 22°
2026-04-19 20:50 57.31521 13.11965 1816 ft 349 kts 20°
2026-04-19 20:50 57.33741 13.13385 1815 ft 335 kts 25°
2026-04-19 20:50 57.36018 13.14971 1664 ft 364 kts 22°
2026-04-19 20:50 57.38290 13.16392 1798 ft 345 kts 22°
2026-04-19 20:51 57.40549 13.17843 1812 ft 348 kts 22°
2026-04-19 20:51 57.42798 13.19327 1810 ft 352 kts 22°
2026-04-19 20:51 57.45061 13.20804 1807 ft 339 kts 22°
2026-04-19 20:51 57.47343 13.22296 1801 ft 347 kts 22°
2026-04-19 20:52 57.49612 13.23788 1803 ft 341 kts 23°
2026-04-19 20:52 57.51866 13.25285 1789 ft 341 kts 22°
2026-04-19 20:52 57.54087 13.26800 1756 ft 324 kts 23°
2026-04-19 20:52 57.56351 13.28325 1822 ft 348 kts 23°
2026-04-19 20:53 57.58609 13.29847 1815 ft 345 kts 22°
2026-04-19 20:53 57.60833 13.31357 1811 ft 340 kts 24°
2026-04-19 20:53 57.63083 13.32872 1827 ft 351 kts 23°
2026-04-19 20:53 57.65356 13.34415 1786 ft 352 kts 24°
2026-04-19 20:54 57.67615 13.35962 1831 ft 339 kts 23°
2026-04-19 20:54 57.69879 13.37496 1832 ft 343 kts 23°
2026-04-19 20:54 57.72130 13.39028 1827 ft 337 kts 23°
2026-04-19 20:54 57.74393 13.40561 1825 ft 349 kts 22°
2026-04-19 20:55 57.76646 13.41960 1762 ft 331 kts 14°
2026-04-19 20:55 57.79012 13.42067 1787 ft 338 kts 360°
2026-04-19 20:55 57.81308 13.41741 1826 ft 324 kts 358°
2026-04-19 20:55 57.83615 13.41140 1826 ft 339 kts 356°
2026-04-19 20:56 57.85959 13.40577 1768 ft 354 kts 354°
2026-04-19 20:56 57.88524 13.39893 1780 ft 381 kts 355°
2026-04-19 20:56 57.91092 13.39163 1789 ft 376 kts 354°
2026-04-19 20:56 57.93630 13.38032 1811 ft 373 kts 342°
2026-04-19 20:57 57.96050 13.36052 1820 ft 380 kts 337°
2026-04-19 20:57 57.98337 13.33919 1839 ft 362 kts 336°
2026-04-19 20:57 58.00603 13.31731 1855 ft 365 kts 335°
2026-04-19 20:57 58.02851 13.29519 1860 ft 364 kts 335°
2026-04-19 20:58 58.05092 13.27287 1852 ft 368 kts 335°
2026-04-19 20:58 58.07330 13.25057 1845 ft 366 kts 335°
2026-04-19 20:58 58.09557 13.22835 1828 ft 351 kts 335°
2026-04-19 20:58 58.11782 13.20617 1856 ft 365 kts 335°
2026-04-19 20:59 58.13788 13.17638 1790 ft 371 kts 311°
2026-04-19 20:59 58.14928 13.13319 1758 ft 368 kts 284°
2026-04-19 20:59 58.15002 13.08458 1761 ft 369 kts 257°
2026-04-19 20:59 58.13976 13.03995 1733 ft 364 kts 232°
2026-04-19 21:00 58.12504 13.00077 1788 ft 369 kts 233°
2026-04-19 21:00 58.11132 12.96009 1811 ft 361 kts 240°
2026-04-19 21:00 58.10008 12.91565 1837 ft 374 kts 243°
2026-04-19 21:00 58.08996 12.87079 1845 ft 367 kts 245°
2026-04-19 21:01 58.08028 12.82553 1852 ft 366 kts 246°
2026-04-19 21:01 58.07068 12.78013 1835 ft 368 kts 246°
2026-04-19 21:01 58.06125 12.73483 1848 ft 372 kts 246°
2026-04-19 21:01 58.05182 12.68978 1842 ft 377 kts 246°
2026-04-19 21:02 58.04236 12.64462 1833 ft 370 kts 246°
2026-04-19 21:02 58.03290 12.59895 1847 ft 379 kts 246°
2026-04-19 21:02 58.02332 12.55298 1832 ft 363 kts 246°
2026-04-19 21:02 58.01388 12.50826 1831 ft 366 kts 246°
2026-04-19 21:03 58.00443 12.46329 1831 ft 373 kts 246°
2026-04-19 21:03 57.99487 12.41827 1848 ft 371 kts 246°
2026-04-19 21:03 57.98537 12.37308 1845 ft 368 kts 246°
2026-04-19 21:03 57.97578 12.32780 1824 ft 361 kts 246°
2026-04-19 21:04 57.96621 12.28259 1815 ft 372 kts 246°
2026-04-19 21:04 57.95665 12.23779 1791 ft 368 kts 246°
2026-04-19 21:04 57.94707 12.19282 1809 ft 366 kts 246°
2026-04-19 21:04 57.93745 12.14751 1799 ft 370 kts 245°
2026-04-19 21:05 57.92785 12.10250 1841 ft 372 kts 246°
2026-04-19 21:05 57.91829 12.05755 1842 ft 365 kts 246°
2026-04-19 21:05 57.90856 12.01245 1828 ft 368 kts 245°
2026-04-19 21:05 57.89894 11.96786 1837 ft 369 kts 245°
2026-04-19 21:06 57.88457 11.92870 1763 ft 360 kts 219°
2026-04-19 21:06 57.86436 11.90126 1768 ft 353 kts 209°
2026-04-19 21:06 57.84145 11.88425 1755 ft 351 kts 190°
2026-04-19 21:06 57.81741 11.87450 1818 ft 358 kts 187°
2026-04-19 21:07 57.79351 11.86988 1795 ft 347 kts 178°
2026-04-19 21:07 57.76897 11.86928 1808 ft 344 kts 176°
2026-04-19 21:07 57.74494 11.86994 1821 ft 354 kts 175°
2026-04-19 21:07 57.72132 11.87110 1797 ft 332 kts 175°
2026-04-19 21:08 57.69725 11.87269 1797 ft 347 kts 175°
2026-04-19 21:08 57.67277 11.87413 1808 ft 349 kts 174°
2026-04-19 21:08 57.64910 11.87577 1816 ft 339 kts 175°
2026-04-19 21:08 57.62539 11.87725 1798 ft 342 kts 175°
2026-04-19 21:09 57.60079 11.87870 1809 ft 342 kts 174°
2026-04-19 21:09 57.57655 11.88012 1808 ft 348 kts 175°
2026-04-19 21:09 57.55312 11.88154 1812 ft 321 kts 175°
2026-04-19 21:09 57.53078 11.88275 1867 ft 321 kts 174°
2026-04-19 21:10 57.50869 11.88376 1838 ft 364 kts 175°
2026-04-19 21:10 57.48338 11.89404 1765 ft 347 kts 149°
2026-04-19 21:10 57.46487 11.92298 1750 ft 352 kts 130°
2026-04-19 21:10 57.44950 11.95687 1767 ft 343 kts 126°
2026-04-19 21:11 57.43804 11.99448 1749 ft 334 kts 103°
2026-04-19 21:11 57.43799 12.03636 1714 ft 327 kts 77°
2026-04-19 21:11 57.44926 12.07409 1706 ft 344 kts 50°
2026-04-19 21:11 57.46545 12.10569 1811 ft 339 kts 42°
2026-04-19 21:12 57.48653 12.12540 2000 ft 352 kts 19°
2026-04-19 21:12 57.50975 12.13965 2094 ft 346 kts 27°
2026-04-19 21:12 57.53178 12.15850 2042 ft 340 kts 29°
2026-04-19 21:12 57.55068 12.17667 1874 ft 276 kts 32°
2026-04-19 21:13 57.56111 12.18663 1772 ft 238 kts 32°
2026-04-19 21:13 57.57518 12.19940 1641 ft 212 kts 32°
2026-04-19 21:13 57.58712 12.21052 1404 ft 196 kts 31°
2026-04-19 21:13 57.59949 12.22178 1370 ft 203 kts 30°
2026-04-19 21:14 57.61157 12.23290 1305 ft 199 kts 31°
2026-04-19 21:14 57.62382 12.24418 1110 ft 194 kts 29°
2026-04-19 21:14 57.63610 12.25538 913 ft 194 kts 29°